Regional Weather Roundup
Issued by NWS

Home | Current Version | Previous Version | Graphics & Text | Print | Product List | Glossary On
Versions: 1 2 3 4 5 6 7 8 9 10 11 12 13 14 15 16 17 18 19 20 21 22 23 24 25 26 27 28 29 30 31 32 33 34 35 36 37 38 39 40 41 42 43 44 45 46 47 48 49 50
000
ASUS45 KABQ 080310
RWRNM
NEW MEXICO REGIONAL WEATHER ROUNDUP
NATIONAL WEATHER SERVICE ALBUQUERQUE NM
900 PM MDT TUE JUL 07 2015

NOTE: "FAIR" MEANS FEW OR NO CLOUDS BELOW 12,000 FEET AGL WITH NO
       SIGNIFICANT WEATHER OR OBSTRUCTIONS TO VISION.

      THIS PRODUCT IS RELEASED AS TWO VERSIONS.  ONE VERSION NEAR
      THE TOP OF THE HOUR CONTAINING PRELIMINARY DATA FROM ALBUQUERQUE
      AND OTHER STATIONS.  A FINAL VERSION WITH ADDITIONAL DATA IS
      ISSUED ABOUT 10 MINUTES AFTER THE HOUR.

NMZ501-503-504-510>518-080400-
NORTHWEST PLATEAU/NORTHCENTRAL MOUNTAINS

CITY           SKY/WX    TMP DP  RH WIND       PRES   REMARKS
FARMINGTON     PTCLDY    70  48  45 E9        30.06R
LOS ALAMOS     LGT RAIN  59  52  76 SE13G20   30.25R
SANTA FE       CLOUDY    61  50  67 CALM      30.24R
TAOS           CLOUDY    55  43  62 SW6       30.28R
ANGEL FIRE     FAIR      52  48  87 CALM      30.33R

$$
NMZ402-403-502-505>509-080400-
WESTCENTRAL MOUNTAINS/SOUTHWEST MOUNTAINS

CITY           SKY/WX    TMP DP  RH WIND       PRES   REMARKS
GALLUP         CLOUDY    63  47  55 SW3       30.16F
GRANTS         MOCLDY    63  54  71 NW7       30.20R
SILVER CITY      N/A     72  50  46 CALM      30.11S

$$
NMZ407-409-411-412-080400-
SOUTHERN DESERTS

CITY           SKY/WX    TMP DP  RH WIND       PRES   REMARKS
LORDSBURG      FAIR      82  50  32 NW6       29.99R
DEMING         PTCLDY    76  52  43 NE12      30.02R
LAS CRUCES     MOCLDY    73  59  61 E5        30.05S
HOLLOMAN AFB   PTCLDY    71  63  77 NE9       30.01S
ALAMOGORDO     PTCLDY    70  61  73 E8        30.04S
T OR C         MOCLDY    74  53  48 W5        30.03F

$$
NMZ519>523-080400-
CENTRAL VALLEYS/CENTRAL HIGHLANDS

CITY           SKY/WX    TMP DP  RH WIND       PRES   REMARKS
ALBUQUERQUE    MOCLDY    70  56  61 NE23      30.11R
DOUBLE EAGLE   MOCLDY    66  55  68 N9        30.15R THUNDER
MORIARTY ARPT    N/A     55  50  82 CALM      30.21R
CLINES CORNERS MOCLDY    52  48  86 SE10      30.22S
BELEN          FAIR      72  57  59 SE18      30.07R
SOCORRO        FAIR      73  53  50 E6        30.06R

$$
NMZ524>526-539-540-080400-
SOUTHCENTRAL MOUNTAINS

CITY           SKY/WX    TMP DP  RH WIND       PRES   REMARKS
RUIDOSO        CLOUDY    57  57 100 SE6       30.27R FOG

$$
NMZ527>531-080400-
NORTHEAST HIGHLANDS/NORTHEAST PLAINS

CITY           SKY/WX    TMP DP  RH WIND       PRES   REMARKS
LAS VEGAS      CLOUDY    57  55  93 CALM      30.25R FOG
RATON          LGT RAIN  57  55  93 SW6       30.22S FOG
CLAYTON        LGT RAIN  65  53  65 SE10      30.16R

$$
NMZ532>537-080400-
EASTCENTRAL PLAINS

CITY           SKY/WX    TMP DP  RH WIND       PRES   REMARKS
TUCUMCARI      MOCLDY    66  58  75 SE5       30.11R HAZE
CANNON AFB     NOT AVBL
CLOVIS AIRPORT PTCLDY    63  57  82 SE5         N/A

$$
NMZ028-029-538-080400-
SOUTHEAST PLAINS

CITY           SKY/WX    TMP DP  RH WIND       PRES   REMARKS
ROSWELL        CLOUDY    73  60  63 E7        30.06F
ARTESIA        CLOUDY    72  68  88 SE13      30.02F
CARLSBAD       TSTM      66  62  87 NE16      30.05F FOG
HOBBS          PTCLDY    66  66 100 NE6       30.13R


$$



USA.gov is the U.S. government's official web portal to all federal, state and local government web resources and services.